Overview Statistics Trail Chart Weather Telemetry Raw packets
 

This is the latest recevied weather packets stored in our database for station/object KV4OP. If no packets are shown the sender has not sent any weather packets the latest 10 day(s).

<< 56 57 58 59 60 61 62 >>
Time Temp. Humidity Pressure Rain* Wind** Luminosity Snow
1788278128 32.78° C 72% 1017.8 hPa 0 mm - - -
1788277828 32.22° C 76% 1017.8 hPa 0 mm - - -
1788277528 32.22° C 72% 1017.8 hPa 0 mm - - -
1788277236 32.22° C 73% 1017.9 hPa 0 mm - - -
1788276946 31.67° C 74% 1017.9 hPa 0 mm - - -
1788276630 31.67° C 73% 1017.9 hPa 0 mm - - -
1788276328 31.67° C 73% 1018 hPa 0 mm - - -
1788276037 31.11° C 74% 1018 hPa 0 mm - - -
1788275728 31.11° C 73% 1018 hPa 0 mm - - -
1788275427 31.67° C 74% 1017.9 hPa 0 mm - - -
1788275128 31.11° C 75% 1018 hPa 0 mm - - -
1788274837 30.56° C 75% 1018 hPa 0 mm - - -
1788274528 31.11° C 75% 1018 hPa 0 mm - - -
1788274234 30.56° C 76% 1018 hPa 0 mm - - -
1788273928 31.11° C 78% 1017.9 hPa 0 mm - - -
1788273636 30.56° C 77% 1017.9 hPa 0 mm - - -
1788273327 30.56° C 79% 1017.9 hPa 0 mm - - -
1788273028 30.56° C 79% 1017.9 hPa 0 mm - - -
1788272728 30.56° C 80% 1017.8 hPa 0 mm - - -
1788272446 30° C 81% 1017.9 hPa 0 mm - - -
1788272128 30° C 81% 1017.9 hPa 0 mm - - -
1788271828 30° C 84% 1017.8 hPa 0 mm - - -
1788271528 29.44° C 85% 1017.6 hPa 0 mm - - -
1788271237 28.89° C 87% 1017.6 hPa 0 mm - - -
1788270928 28.33° C 86% 1017.7 hPa 0 mm - - -

* Rain latest hour (hover to see other rain measurements)
** Current wind speed in m/s (hover to see current wind gust speed)